| time (UTC) | temp F | wind direction | speed knots | gust knots | rain 1hr in | rain 24hr in | rain mn in | humidity % | barometer mb |
| 20260508044031 | 70 | 0 | 0.9 | 7.0 | 0.00 | 0.00 | 0.00 | 17 | 1011.1 |
| 20260508041839 | 70 | 0 | 1.7 | 6.1 | 0.00 | 0.00 | 0.00 | 17 | 1010.8 |
| 20260508035715 | 71 | 0 | 0.0 | 3.5 | 0.00 | 0.00 | 0.00 | 17 | 1010.4 |
| 20260508034731 | 72 | 0 | 2.6 | 8.7 | 0.00 | 0.00 | 0.00 | 15 | 1010.2 |
| 20260508033702 | 72 | 0 | 4.3 | 8.7 | 0.00 | 0.00 | 0.00 | 14 | 1009.6 |
| 20260508030403 | 74 | 0 | 7.0 | 11.3 | 0.00 | 0.00 | 0.00 | 13 | 1009.0 |
| 20260508025411 | 74 | 0 | 6.1 | 11.3 | 0.00 | 0.00 | 0.00 | 13 | 1009.0 |
| 20260508024354 | 74 | 0 | 2.6 | 8.7 | 0.00 | 0.00 | 0.00 | 14 | 1009.5 |
| 20260508023333 | 74 | 0 | 3.5 | 8.7 | 0.00 | 0.00 | 0.00 | 14 | 1009.5 |
| 20260508022321 | 74 | 0 | 4.3 | 13.9 | 0.00 | 0.00 | 0.00 | 13 | 1009.4 |
| 20260508021346 | 74 | 0 | 8.7 | 13.9 | 0.00 | 0.00 | 0.00 | 13 | 1009.0 |
| 20260508020332 | 75 | 0 | 4.3 | 11.3 | 0.00 | 0.00 | 0.00 | 12 | 1009.0 |
| 20260508015315 | 75 | 0 | 4.3 | 11.3 | 0.00 | 0.00 | 0.00 | 12 | 1009.0 |
| 20260508014328 | 76 | 0 | 2.6 | 20.9 | 0.00 | 0.00 | 0.00 | 12 | 1008.7 |
| 20260508013315 | 75 | 0 | 6.1 | 20.9 | 0.00 | 0.00 | 0.00 | 12 | 1008.3 |
| 20260508012249 | 75 | 0 | 7.8 | 17.4 | 0.00 | 0.00 | 0.00 | 12 | 1008.5 |
| 20260508011221 | 75 | 0 | 6.1 | 20.0 | 0.00 | 0.00 | 0.00 | 13 | 1008.7 |
| 20260508010203 | 75 | 0 | 6.1 | 20.0 | 0.00 | 0.00 | 0.00 | 14 | 1009.0 |
| 20260508005154 | 76 | 0 | 6.1 | 20.0 | 0.00 | 0.00 | 0.00 | 12 | 1008.8 |
| 20260508003009 | 76 | 0 | 8.7 | 18.2 | 0.00 | 0.00 | 0.00 | 12 | 1008.5 |
| 20260508001956 | 76 | 0 | 11.3 | 21.7 | 0.00 | 0.00 | 0.00 | 12 | 1008.2 |
| 20260508000953 | 77 | 0 | 10.4 | 21.7 | 0.00 | 0.00 | 0.00 | 10 | 1007.9 |
| 20260507235924 | 77 | 0 | 4.3 | 14.8 | 0.00 | 0.00 | 0.00 | 9 | 1007.6 |
| 20260507234924 | 77 | 0 | 7.8 | 15.6 | 0.00 | 0.00 | 0.00 | 10 | 1007.3 |
| 20260507233919 | 78 | 0 | 9.6 | 20.0 | 0.00 | 0.00 | 0.00 | 9 | 1007.4 |
| 20260507232920 | 79 | 0 | 12.2 | 20.0 | 0.00 | 0.00 | 0.00 | 9 | 1007.1 |
| 20260507231932 | 81 | 0 | 9.6 | 18.2 | 0.00 | 0.00 | 0.00 | 8 | 1006.9 |
| 20260507225856 | 82 | 0 | 2.6 | 7.0 | 0.00 | 0.00 | 0.00 | 4 | 1006.8 |
| 20260507224846 | 82 | 0 | 1.7 | 6.1 | 0.00 | 0.00 | 0.00 | 4 | 1006.8 |
| 20260507223828 | 82 | 0 | 0.9 | 6.1 | 0.00 | 0.00 | 0.00 | 3 | 1006.8 |
| 20260507222814 | 82 | 0 | 3.5 | 13.0 | 0.00 | 0.00 | 0.00 | 4 | 1007.0 |
| 20260507221806 | 82 | 0 | 5.2 | 13.0 | 0.00 | 0.00 | 0.00 | 3 | 1007.1 |
| 20260507220744 | 82 | 0 | 3.5 | 12.2 | 0.00 | 0.00 | 0.00 | 4 | 1007.2 |
| 20260507215803 | 80 | 0 | 4.3 | 25.2 | 0.00 | 0.00 | 0.00 | 6 | 1007.5 |
| 20260507213552 | 83 | 0 | 2.6 | 10.4 | 0.00 | 0.00 | 0.00 | 3 | 1007.6 |
| 20260507212600 | 84 | 0 | 3.5 | 10.4 | 0.00 | 0.00 | 0.00 | 4 | 1007.5 |
| 20260507211620 | 82 | 0 | 4.3 | 9.6 | 0.00 | 0.00 | 0.00 | 4 | 1007.5 |
| 20260507210626 | 82 | 0 | 2.6 | 8.7 | 0.00 | 0.00 | 0.00 | 4 | 1007.7 |
| 20260507205643 | 83 | 0 | 1.7 | 9.6 | 0.00 | 0.00 | 0.00 | 3 | 1007.9 |
| 20260507204608 | 84 | 0 | 1.7 | 9.6 | 0.00 | 0.00 | 0.00 | 4 | 1007.8 |
| 20260507203550 | 84 | 0 | 1.7 | 10.4 | 0.00 | 0.00 | 0.00 | 5 | 1008.0 |
| 20260507202539 | 83 | 0 | 3.5 | 10.4 | 0.00 | 0.00 | 0.00 | 4 | 1007.9 |
| 20260507201503 | 83 | 0 | 2.6 | 10.4 | 0.00 | 0.00 | 0.00 | 4 | 1008.3 |
| 20260507200444 | 84 | 0 | 3.5 | 13.0 | 0.00 | 0.00 | 0.00 | 3 | 1008.4 |
| 20260507192222 | 83 | 0 | 3.5 | 10.4 | 0.00 | 0.00 | 0.00 | 4 | 1009.1 |
| 20260507191212 | 84 | 0 | 3.5 | 9.6 | 0.00 | 0.00 | 0.00 | 4 | 1009.2 |
| 20260507190226 | 83 | 0 | 0.9 | 7.0 | 0.00 | 0.00 | 0.00 | 4 | 1009.3 |
| 20260507184117 | 84 | 0 | 2.6 | 8.7 | 0.00 | 0.00 | 0.00 | 4 | 1009.6 |
| 20260507183121 | 82 | 0 | 2.6 | 8.7 | 0.00 | 0.00 | 0.00 | 6 | 1009.7 |
| 20260507182049 | 81 | 0 | 2.6 | 7.8 | 0.00 | 0.00 | 0.00 | 4 | 1009.8 |
| 20260507181030 | 81 | 0 | 0.9 | 7.0 | 0.00 | 0.00 | 0.00 | 5 | 1009.8 |
| 20260507180032 | 81 | 0 | 0.9 | 7.0 | 0.00 | 0.00 | 0.00 | 5 | 1009.9 |
| 20260507175002 | 82 | 0 | 1.7 | 7.0 | 0.00 | 0.00 | 0.00 | 5 | 1010.0 |
| 20260507174011 | 81 | 0 | 1.7 | 6.1 | 0.00 | 0.00 | 0.00 | 5 | 1010.2 |
| 20260507173015 | 80 | 0 | 0.9 | 2.6 | 0.00 | 0.00 | 0.00 | 6 | 1010.4 |
| 20260507172037 | 80 | 0 | 0.9 | 6.1 | 0.00 | 0.00 | 0.00 | 6 | 1010.5 |
| 20260507171011 | 79 | 0 | 0.9 | 6.1 | 0.00 | 0.00 | 0.00 | 7 | 1010.5 |
| 20260507164929 | 76 | 0 | 0.9 | 6.1 | 0.00 | 0.00 | 0.00 | 13 | 1010.7 |
| 20260507163929 | 75 | 0 | 0.9 | 4.3 | 0.00 | 0.00 | 0.00 | 12 | 1010.7 |
| 20260507162857 | 73 | 0 | 0.0 | 2.6 | 0.00 | 0.00 | 0.00 | 15 | 1010.7 |
| 20260507161908 | 72 | 0 | 0.0 | 2.6 | 0.00 | 0.00 | 0.00 | 16 | 1010.9 |
| 20260507160900 | 71 | 0 | 0.0 | 1.7 | 0.00 | 0.00 | 0.00 | 17 | 1011.2 |
| 20260507155917 | 69 | 0 | 0.9 | 3.5 | 0.00 | 0.00 | 0.00 | 19 | 1011.4 |
| 20260507153834 | 66 | 0 | 2.6 | 7.0 | 0.00 | 0.00 | 0.00 | 23 | 1011.8 |
| 20260507151652 | 64 | 0 | 3.5 | 8.7 | 0.00 | 0.00 | 0.00 | 27 | 1011.8 |
| 20260507145453 | 60 | 0 | 0.0 | 2.6 | 0.00 | 0.00 | 0.00 | 30 | 1011.5 |
| 20260507144456 | 59 | 0 | 0.9 | 3.5 | 0.00 | 0.00 | 0.00 | 32 | 1011.6 |
| 20260507143448 | 58 | 0 | 0.9 | 4.3 | 0.00 | 0.00 | 0.00 | 32 | 1011.7 |
| 20260507142425 | 56 | 0 | 0.9 | 7.0 | 0.00 | 0.00 | 0.00 | 33 | 1011.9 |
| 20260507140258 | 53 | 0 | 0.9 | 6.1 | 0.00 | 0.00 | 0.00 | 36 | 1012.0 |
| 20260507135224 | 52 | 0 | 0.9 | 4.3 | 0.00 | 0.00 | 0.00 | 36 | 1012.1 |
| 20260507134211 | 51 | 0 | 1.7 | 4.3 | 0.00 | 0.00 | 0.00 | 37 | 1012.0 |
| 20260507133153 | 50 | 0 | 0.9 | 2.6 | 0.00 | 0.00 | 0.00 | 40 | 1011.9 |
| 20260507132131 | 49 | 0 | 0.0 | 1.7 | 0.00 | 0.00 | 0.00 | 41 | 1011.8 |
| 20260507131147 | 48 | 0 | 0.0 | 0.9 | 0.00 | 0.00 | 0.00 | 41 | 1011.8 |
| 20260507130145 | 48 | 0 | 0.0 | 0.0 | 0.00 | 0.00 | 0.00 | 40 | 1011.7 |
| 20260507125142 | 47 | 0 | 0.9 | 4.3 | 0.00 | 0.00 | 0.00 | 41 | 1011.6 |
| 20260507124136 | 47 | 0 | 0.0 | 0.0 | 0.00 | 0.00 | 0.00 | 41 | 1011.5 |
| 20260507123129 | 48 | 0 | 0.0 | 0.0 | 0.00 | 0.00 | 0.00 | 41 | 1011.5 |
| 20260507122144 | 48 | 0 | 0.0 | 0.9 | 0.00 | 0.00 | 0.00 | 40 | 1011.4 |
| 20260507121120 | 48 | 0 | 0.9 | 2.6 | 0.00 | 0.00 | 0.00 | 40 | 1011.2 |
| 20260507114915 | 49 | 0 | 0.0 | 0.0 | 0.00 | 0.00 | 0.00 | 38 | 1011.3 |
| 20260507111613 | 51 | 0 | 0.0 | 0.0 | 0.00 | 0.00 | 0.00 | 35 | 1011.5 |
| 20260507110544 | 52 | 0 | 1.7 | 3.5 | 0.00 | 0.00 | 0.00 | 34 | 1011.6 |
| 20260507105602 | 52 | 0 | 0.9 | 2.6 | 0.00 | 0.00 | 0.00 | 34 | 1011.6 |
| 20260507103438 | 53 | 0 | 1.7 | 2.6 | 0.00 | 0.00 | 0.00 | 33 | 1011.6 |
| 20260507102442 | 53 | 0 | 0.9 | 2.6 | 0.00 | 0.00 | 0.00 | 33 | 1011.8 |
| 20260507101507 | 53 | 0 | 0.9 | 3.5 | 0.00 | 0.00 | 0.00 | 33 | 1011.9 |
| 20260507100453 | 53 | 0 | 0.0 | 1.7 | 0.00 | 0.00 | 0.00 | 32 | 1011.9 |
| 20260507095455 | 54 | 0 | 0.9 | 0.9 | 0.00 | 0.00 | 0.00 | 32 | 1011.9 |
| 20260507094453 | 54 | 0 | 0.0 | 3.5 | 0.00 | 0.00 | 0.00 | 32 | 1011.9 |
| 20260507093448 | 55 | 0 | 0.0 | 1.7 | 0.00 | 0.00 | 0.00 | 30 | 1012.0 |
| 20260507092444 | 56 | 0 | 0.0 | 0.0 | 0.00 | 0.00 | 0.00 | 29 | 1012.0 |
| 20260507091414 | 57 | 0 | 0.0 | 0.9 | 0.00 | 0.00 | 0.00 | 27 | 1012.0 |
| 20260507090437 | 57 | 0 | 1.7 | 2.6 | 0.00 | 0.00 | 0.00 | 26 | 1012.0 |
| 20260507085426 | 55 | 0 | 0.9 | 3.5 | 0.00 | 0.00 | 0.00 | 31 | 1012.1 |
| 20260507084413 | 55 | 0 | 1.7 | 3.5 | 0.00 | 0.00 | 0.00 | 30 | 1012.2 |
| 20260507083409 | 55 | 0 | 2.6 | 3.5 | 0.00 | 0.00 | 0.00 | 30 | 1012.2 |
| 20260507082414 | 56 | 0 | 1.7 | 3.5 | 0.00 | 0.00 | 0.00 | 28 | 1012.5 |
| 20260507081353 | 57 | 0 | 1.7 | 3.5 | 0.00 | 0.00 | 0.00 | 26 | 1012.5 |
| 20260507080401 | 59 | 0 | 0.0 | 2.6 | 0.00 | 0.00 | 0.00 | 24 | 1012.4 |
| 20260507075422 | 61 | 0 | 0.9 | 2.6 | 0.00 | 0.00 | 0.00 | 22 | 1012.5 |
| 20260507074417 | 61 | 0 | 1.7 | 2.6 | 0.00 | 0.00 | 0.00 | 21 | 1012.4 |
| 20260507073407 | 61 | 0 | 1.7 | 2.6 | 0.00 | 0.00 | 0.00 | 21 | 1012.6 |
| 20260507072347 | 61 | 0 | 1.7 | 3.5 | 0.00 | 0.00 | 0.00 | 20 | 1012.6 |
| 20260507071327 | 62 | 0 | 1.7 | 3.5 | 0.00 | 0.00 | 0.00 | 20 | 1012.6 |
| 20260507070339 | 62 | 0 | 1.7 | 3.5 | 0.00 | 0.00 | 0.00 | 20 | 1012.6 |
| 20260507065308 | 62 | 0 | 1.7 | 4.3 | 0.00 | 0.00 | 0.00 | 20 | 1012.7 |
| 20260507064331 | 63 | 0 | 1.7 | 4.3 | 0.00 | 0.00 | 0.00 | 20 | 1012.7 |
| 20260507063344 | 63 | 0 | 1.7 | 4.3 | 0.00 | 0.00 | 0.00 | 19 | 1012.6 |
| 20260507062336 | 63 | 0 | 2.6 | 4.3 | 0.00 | 0.00 | 0.00 | 20 | 1012.6 |
| 20260507061317 | 63 | 0 | 1.7 | 3.5 | 0.00 | 0.00 | 0.00 | 20 | 1012.6 |
| 20260507060246 | 63 | 0 | 1.7 | 3.5 | 0.00 | 0.00 | 0.00 | 19 | 1012.6 |
| 20260507055212 | 63 | 0 | 2.6 | 4.3 | 0.00 | 0.00 | 0.00 | 19 | 1012.6 |
| 20260507054142 | 64 | 0 | 1.7 | 4.3 | 0.00 | 0.00 | 0.00 | 19 | 1012.6 |
| 20260507053133 | 64 | 0 | 2.6 | 6.1 | 0.00 | 0.00 | 0.00 | 19 | 1012.6 |
| 20260507051010 | 64 | 0 | 1.7 | 6.1 | 0.00 | 0.00 | 0.00 | 18 | 1012.5 |
| 20260507050006 | 64 | 0 | 2.6 | 6.1 | 0.00 | 0.00 | 0.00 | 18 | 1012.4 |